Вернуться в каталог

THORAD DELTA 1 DEB

АктивенSSO
NORAD 8401·DEBRIS·🇺🇸 United States

Запущен Nov 15, 1974 с Vandenberg Space Force Base

Loading…

Ближайшие Пролёты (ближайшие 24 часа)

TLE

СвежийSource: Space-Track

Эпоха: Sep 14, 2026, 10:31 UTC

1 08401U 74089CD  26257.43850760 -.00000066  00000-0 -10814-3 0  9997
2 08401 101.4055 332.1784 0067636 237.9181 186.2027 12.67233900396599

Отслеживайте THORAD DELTA 1 DEB в реальном времени с AllMySat

Download on the App Store